2021/06/28,62500,62500,62500,62500
2021/06/29,62500,62500,62500,62500
2021/06/30,62500,62500,62500,62500
2021/07/01,63600,63600,63600,63600
2021/07/02,63600,63600,63600,63600
2021/07/05,64900,64900,64900,64900
2021/07/06,65900,65900,65900,65900
2021/07/07,65900,65900,65900,65900
2021/07/08,65900,65900,65900,65900
2021/07/09,65900,65900,65900,65900
2021/07/12,65900,65900,65900,65900
2021/07/13,65900,65900,65900,65900
2021/07/14,65900,65900,65900,65900
2021/07/15,65900,65900,65900,65900
2021/07/16,65900,65900,65900,65900
2021/07/20,63500,63500,63300,63300
2021/07/21,63100,63100,63100,63100
2021/07/26,63100,63100,63100,63100
2021/07/27,63100,63100,63100,63100
2021/07/28,63100,63100,63100,63100
2021/07/29,63100,63100,63100,63100
2021/07/30,63100,63100,63100,63100
2021/08/02,63100,63100,63100,63100
2021/08/03,63100,63100,63100,63100
2021/08/04,63100,63100,63100,63100
2021/08/05,63100,63100,63100,63100
2021/08/06,63100,63100,63100,63100
2021/08/10,63100,63100,63100,63100
2021/08/11,63100,63100,63100,63100
2021/08/12,63100,63100,63100,63100
2021/08/13,63100,63100,63100,63100
2021/08/16,63100,63100,63100,63100
2021/08/17,63100,63100,63100,63100
2021/08/18,63100,63100,63100,63100
2021/08/19,63100,63100,63100,63100
2021/08/20,63100,63100,63100,63100
2021/08/23,63100,63100,63100,63100
2021/08/24,63100,63100,63100,63100
2021/08/25,63100,63100,63100,63100
2021/08/26,63100,63100,63100,63100
2021/08/27,63100,63100,63100,63100
2021/08/30,63100,63100,63100,63100
2021/08/31,63100,63100,63100,63100
2021/09/01,63100,63100,63100,63100
2021/09/02,63100,63100,63100,63100
2021/09/03,63100,63100,63100,63100
2021/09/06,63100,63100,63100,63100
2021/09/07,63100,63100,63100,63100
2021/09/08,63100,63100,63100,63100
2021/09/09,63100,63100,63100,63100
2021/09/10,63100,63100,63100,63100
2021/09/13,63100,63100,63100,63100
2021/09/14,63100,63100,63100,63100
2021/09/15,63100,63100,63100,63100
2021/09/16,63100,63100,63100,63100
2021/09/17,63100,63100,63100,63100
2021/09/24,66300,66300,66300,66300
2021/09/27,66900,66900,66900,66900
2021/09/28,66900,66900,66900,66900
2021/09/29,66900,66900,66900,66900
2021/09/30,66900,66900,66900,66900
2021/10/01,66900,66900,66900,66900
2021/10/04,66900,66900,66900,66900
2021/10/05,68500,68500,68500,68500
2021/10/06,68500,68500,68500,68500
2021/10/07,68500,68500,68500,68500
2021/10/08,69200,69200,69200,69200
2021/10/11,71000,71000,71000,71000
2021/10/12,72000,72000,72000,72000
2021/10/13,72000,72000,72000,72000
2021/10/14,72000,72000,72000,72000
2021/10/15,72000,72000,72000,72000
2021/10/18,72000,72000,72000,72000
2021/10/19,72000,72000,72000,72000
2021/10/20,72000,72000,72000,72000
2021/10/21,72000,72000,72000,72000
2021/10/22,72000,72000,72000,72000
2021/10/25,72000,72000,72000,72000
2021/10/26,73000,73000,73000,73000
2021/10/27,73000,73000,73000,73000
2021/10/28,73000,73000,73000,73000
2021/10/29,74300,74300,74300,74300
2021/11/01,75200,75200,75200,75200
2021/11/02,75200,75200,75200,75200
2021/11/04,75200,75200,75200,75200
2021/11/05,75200,75200,75200,75200
2021/11/08,75200,75200,75200,75200
2021/11/09,75200,75200,75200,75200
2021/11/10,75200,75200,75200,75200
2021/11/11,75200,75200,75200,75200
2021/11/12,75200,75200,75200,75200
2021/11/15,75200,75200,75200,75200
2021/11/16,75200,75200,75200,75200
2021/11/17,74800,74800,74600,74600
2021/11/18,74500,74500,74200,74200
2021/11/19,74200,74200,74200,74200
2021/11/22,74200,74200,74200,74200
2021/11/24,74200,74200,74200,74200
2021/11/25,74200,74200,74200,74200
2021/11/26,74200,74200,74200,74200
2021/11/29,71200,71200,71200,71200
2021/11/30,71200,71200,71200,71200
2021/12/01,71200,71200,71200,71200
2021/12/02,71200,71200,71200,71200
2021/12/03,67990,67990,67000,67000
2021/12/06,67000,67000,67000,67000
2021/12/07,67000,67000,67000,67000
2021/12/08,67900,67900,67900,67900
2021/12/09,68000,68000,68000,68000
2021/12/10,68000,68000,68000,68000
2021/12/13,68200,68200,68200,68200
2021/12/14,68200,68200,68200,68200
2021/12/15,68000,68000,68000,68000
2021/12/16,68500,68500,68500,68500
2021/12/17,68500,68500,68500,68500
2021/12/20,68300,68300,67500,67500
2021/12/21,68500,68600,67800,68600
2021/12/22,69200,69600,69200,69600
2021/12/23,69800,70200,69700,69700
2021/12/24,70700,71500,70700,71260
